Tiempo atmosférico en la estación meteorológica de Piornal, Cáceres (1175 m.)



Fecha
DESCASC
Temp. máxima en grados centígrados (hora)
DESCASC
Temp. mínima en grados centígrados (hora)
DESCASC
Temp. media en grados centígrados
DESCASC
Racha de viento máxima en m/sg (hora)
DESCASC
Velocidad máxima media en intervalos de 10 minutos(hora)
DESCASC
Precipitaciones diarias en mm
DESCASC
Precipitaciones de 00:00 a 06:00 en mm
DESCASC
Precipitaciones de 06:00 a 12:00 en mm
DESCASC
Precipitaciones de 12:00 a 18:00 en mm
DESCASC
Precipitaciones de 18:00 a 24:00 en mm
DESCASC
08-12-2019 10.2 (12:10) 3.8 (03:30) 7 11.67 (22:40) 7.5 (22:40) 0.8 0 0 0.6 0.2
07-12-2019 11.4 (13:10) 3.5 (08:00) 7.4 5.83 (02:50) 2.78 (03:00) 0 0 0 0 0
06-12-2019 9.8 (15:10) 3.8 (05:00) 6.8 12.5 (01:30) 6.67 (01:30) 0 0 0 0 0
05-12-2019 9.1 (14:30) 3.2 (00:00) 6.2 8.33 (23:59) 4.44 (23:59) 0 0 0 0 0
04-12-2019 7.1 (15:20) 1.2 (00:00) 4.1 8.61 (00:50) 5 (01:10) 0 0 0 0 0
03-12-2019 5.5 (12:40) 1.5 (00:00) 3.5 10.28 (20:10) 5.28 (12:20) -- -- -- 0 0
02-12-2019 6.4 (15:40) 1.4 (00:00) 3.9 7.5 (09:30) 3.33 (15:50) -- -- -- -- --
01-12-2019 5.9 (14:30) 2.1 (00:00) 4 9.72 (05:10) 4.44 (03:50) -- -- -- -- --
30-11-2019 9.1 (00:20) 2.3 (00:00) 5.7 14.44 (15:50) 6.67 (20:30) -- -- -- -- --
29-11-2019 9.5 (15:40) 8 (00:00) 8.8 9.72 (00:20) 4.44 (00:20) -- -- -- -- --
28-11-2019 8.1 (23:20) 5.3 (00:00) 6.7 10.83 (22:10) 5 (23:50) -- -- -- -- --
27-11-2019 7.7 (00:00) 4.3 (00:00) 6 11.39 (03:10) 6.39 (02:40) 2.8 2.2 0 0.6 0
26-11-2019 9.5 (17:50) 6.8 (00:00) 8.2 15 (19:50) 6.39 (22:50) 40 1 5.8 27 6.2
25-11-2019 9.3 (11:10) 6.3 (00:00) 7.8 9.72 (08:40) 5 (14:50) 8.2 7.4 0.8 0 0
24-11-2019 8.5 (13:20) 1.3 (00:00) 4.9 12.5 (03:50) 7.22 (05:30) 5.2 0 0 0 5.2
23-11-2019 5.6 (14:50) 1 (00:00) 3.3 22.22 (00:20) 7.78 (00:10) 3 2.8 0.2 0 0
22-11-2019 8.1 (14:20) 3.8 (00:00) 6 15.83 (22:10) 8.33 (23:50) 48.6 11.2 27.6 7.8 2
21-11-2019 5.5 (16:10) 2.2 (00:00) 3.9 6.67 (02:10) 3.06 (13:00) 9.4 2.8 3.8 0.2 2.6
20-11-2019 2.5 (00:00) 0 (00:00) 1.3 6.67 (08:20) 3.06 (08:40) 14.2 0.6 3.4 8.2 2
19-11-2019 6.3 (14:20) 0.2 (00:00) 3.3 3.33 (12:00) 1.39 (15:20) 0 0 0 0 0
18-11-2019 8.4 (15:20) 0.6 (00:00) 4.5 14.44 (01:40) 8.61 (01:40) 0.2 0 0 0.2 0
17-11-2019 5.2 (18:30) -0.4 (00:00) 2.4 12.5 (23:50) 5.28 (23:59) 6.6 0 0.8 3.6 2.2
16-11-2019 7.5 (13:20) -1.6 (-00:0) 2.9 9.72 (17:00) 5.28 (02:40) 0 0 0 0 0
15-11-2019 3.7 (13:40) -1.6 (-00:0) 1.1 19.17 (05:40) 10 (05:20) 0.2 0 0 0.2 0
14-11-2019 4.8 (00:00) 0.1 (00:00) 2.5 15.83 (18:50) 7.5 (17:30) 9.8 1.8 2.4 3 2.6
13-11-2019 12.2 (14:50) 4.8 (00:00) 8.5 12.78 (03:00) 6.39 (02:50) 14.6 13.2 1.2 0.2 0
12-11-2019 11.4 (14:50) 1.7 (00:00) 6.5 9.72 (23:50) 3.89 (23:59) 1.4 0 0.2 0 1.2
11-11-2019 8.1 (16:10) 2.6 (00:00) 5.4 8.89 (14:40) 4.72 (14:40) 0.4 0 0.4 0 0

Gráficas

Temp. máximas Temp. mínimas Temp. medias Precipitaciones Rachas de viento máximas Velocidades máximas media en intervalos de 10 minutos

Datos horarios

Fecha y hora oficial Temperatura (ºC) Velocidad del viento (km/h) Dirección del viento Racha (km/h) Dirección de racha Precipitación (mm) Presión (hPa) Tendencia (hPa) Humedad (%)
2019-12-10 23:00:00 6.9 7 Oeste 12 Oeste 0 -- -- 40
2019-12-10 22:00:00 6 0 Calma 13 Oeste 0 -- -- 43
2019-12-10 21:00:00 6.8 9 Oeste 15 Oeste 0 -- -- 42
2019-12-10 20:00:00 7.4 5 Oeste 16 Oeste 0 -- -- 39
2019-12-10 19:00:00 7.5 2 Oeste 9 Noroeste 0 -- -- 38
2019-12-10 18:00:00 8.5 7 Noroeste 14 Noroeste 0 -- -- 40
2019-12-10 17:00:00 9.6 9 Noroeste 13 Norte 0 -- -- 39
2019-12-10 16:00:00 11.3 7 Norte 16 Noroeste 0 -- -- 35
2019-12-10 15:00:00 12.6 5 Norte 14 Noroeste 0 -- -- 33
2019-12-10 14:00:00 11.5 5 Norte 9 Noroeste 0 -- -- 38
2019-12-10 13:00:00 12.2 5 Noroeste 8 Noroeste 0 -- -- 29
2019-12-10 12:00:00 11.6 5 Sudoeste 10 Sudoeste 0 -- -- 36
2019-12-10 11:00:00 8.1 0 Calma 4 Oeste 0 -- -- 35
2019-12-10 10:00:00 6.8 0 Calma 4 Sur 0 -- -- 49
2019-12-10 09:00:00 4.1 3 Sur 8 Oeste 0 -- -- 46
2019-12-10 08:00:00 5 2 Nordeste 7 Oeste 0 -- -- 40
2019-12-10 07:00:00 5.8 3 Norte 10 Nordeste 0 -- -- 31
2019-12-10 06:00:00 5.9 3 Norte 9 Norte 0 -- -- 30
2019-12-10 05:00:00 6 3 Norte 8 Noroeste 0 -- -- 31
2019-12-10 04:00:00 5.6 0 Calma 8 Sudeste 0 -- -- 35
2019-12-10 03:00:00 6.3 2 Sudeste 5 Nordeste 0 -- -- 30
2019-12-10 02:00:00 5.8 2 Norte 6 Noroeste 0 -- -- 34
2019-12-10 01:00:00 6.2 0 Calma 5 Noroeste 0 -- -- 33
2019-12-10 00:00:00 6.6 3 Norte 12 Norte 0 -- -- 32
2019-12-09 23:00:00 6.8 6 Nordeste 14 Norte 0 -- -- 31
2019-12-09 22:00:00 6.8 8 Norte 15 Norte 0 -- -- 33
2019-12-09 21:00:00 7.8 6 Norte 22 Norte 0 -- -- 35
2019-12-09 20:00:00 6.9 4 Norte 14 Norte 0 -- -- 38
2019-12-09 19:00:00 8 4 Norte 15 Noroeste 0 -- -- 47
2019-12-09 18:00:00 9.2 2 Nordeste 9 Norte 0 -- -- 50
2019-12-09 17:00:00 11.4 8 Norte 19 Noroeste 0 -- -- 37
2019-12-09 16:00:00 12.9 9 Norte 21 Norte 0 -- -- 28
2019-12-09 15:00:00 13.7 10 Norte 27 Norte 0 -- -- 25
2019-12-09 14:00:00 13.8 12 Norte 26 Norte 0 -- -- 24
2019-12-09 13:00:00 13.8 12 Norte 22 Norte 0 -- -- 21
2019-12-09 12:00:00 13.3 9 Norte 21 Norte 0 -- -- 26
2019-12-09 11:00:00 10.9 9 Norte 16 Norte 0 -- -- 27
2019-12-09 10:00:00 7.5 5 Oeste 11 Oeste 0 -- -- 34
2019-12-09 09:00:00 6.6 4 Norte 19 Norte 0 -- -- 21
2019-12-09 08:00:00 6.4 7 Norte 15 Norte 0 -- -- 20
2019-12-09 07:00:00 7.9 8 Nordeste 16 Nordeste 0 -- -- 18
2019-12-09 06:00:00 6.3 6 Noroeste 22 Nordeste 0 -- -- 31
2019-12-09 05:00:00 8.7 9 Nordeste 22 Norte 0 -- -- 22
2019-12-09 04:00:00 6.6 7 Norte 21 Norte 0 -- -- 37
2019-12-09 03:00:00 6.2 10 Nordeste 18 Norte 0 -- -- 51
2019-12-09 02:00:00 4.8 4 Nordeste 8 Norte 0 -- -- 82
2019-12-09 01:00:00 6.2 6 Nordeste 25 Noroeste 0 -- -- 74
2019-12-09 00:00:00 7.1 14 Norte 26 Noroeste 0 -- -- 99
2019-12-08 23:00:00 7.9 21 Noroeste 42 Noroeste 0 -- -- 100
2019-12-08 22:00:00 8.1 17 Noroeste 38 Noroeste 0 -- -- 100
2019-12-08 21:00:00 8.7 22 Noroeste 36 Noroeste 0.2 -- -- 100
2019-12-08 20:00:00 8.7 17 Noroeste 28 Noroeste 0 -- -- 100
2019-12-08 19:00:00 8.8 16 Noroeste 31 Noroeste 0 -- -- 100
2019-12-08 18:00:00 8.6 17 Noroeste 26 Noroeste 0 -- -- 99
2019-12-08 17:00:00 8.6 15 Noroeste 25 Noroeste 0.2 -- -- 97
2019-12-08 16:00:00 8.3 14 Noroeste 28 Noroeste 0.4 -- -- 96
2019-12-08 15:00:00 9.3 8 Oeste 20 Sudoeste 0 -- -- 93
2019-12-08 14:00:00 9.5 10 Oeste 20 Oeste 0 -- -- 91
2019-12-08 13:00:00 9.8 9 Oeste 17 Oeste 0 -- -- 90
2019-12-08 12:00:00 10.1 9 Oeste 14 Oeste 0 -- -- 86
2019-12-08 11:00:00 8.6 8 Noroeste 19 Noroeste 0 -- -- 90
2019-12-08 10:00:00 7.6 12 Noroeste 24 Noroeste 0 -- -- 88
2019-12-08 09:00:00 5.6 10 Noroeste 19 Noroeste 0 -- -- 85
2019-12-08 08:00:00 4.3 0 Calma 13 Noroeste 0 -- -- 81
2019-12-08 07:00:00 4.8 11 Noroeste 18 Noroeste 0 -- -- 80
2019-12-08 06:00:00 4.3 4 Noroeste 11 Noroeste 0 -- -- 81
2019-12-08 05:00:00 4.3 7 Noroeste 15 Noroeste 0 -- -- 81
2019-12-08 04:00:00 3.9 3 Norte 14 Noroeste 0 -- -- 86
2019-12-08 03:00:00 3.9 3 Noroeste 8 Noroeste 0 -- -- 84
2019-12-08 02:00:00 4.6 3 Sur 9 Norte 0 -- -- 77
2019-12-08 01:00:00 5.2 7 Norte 12 Noroeste 0 -- -- 72
2019-12-08 00:00:00 4.7 0 Calma 11 Noroeste 0 -- -- 79
2019-12-07 23:00:00 5.1 4 Noroeste 5 Noroeste 0 -- -- 80
2019-12-07 22:00:00 5.3 0 Calma 9 Noroeste 0 -- -- 80
2019-12-07 21:00:00 5.3 2 Sur 6 Noroeste 0 -- -- 87
2019-12-07 20:00:00 5.6 4 Nordeste 11 Norte 0 -- -- 94
2019-12-07 19:00:00 4.9 7 Norte 14 Norte 0 -- -- 91
2019-12-07 18:00:00 7.1 4 Norte 7 Norte 0 -- -- 82
2019-12-07 17:00:00 9.9 3 Oeste 8 Oeste 0 -- -- 75
2019-12-07 16:00:00 10.8 4 Noroeste 8 Oeste 0 -- -- 71
2019-12-07 15:00:00 11.2 4 Noroeste 12 Sudoeste 0 -- -- 70
2019-12-07 14:00:00 10.7 7 Sudoeste 13 Sudoeste 0 -- -- 78
2019-12-07 13:00:00 11.1 4 Norte 9 Sur 0 -- -- 73
2019-12-07 12:00:00 9.7 3 Oeste 9 Sudoeste 0 -- -- 79
2019-12-07 11:00:00 8 2 Sur 6 Sudoeste 0 -- -- 83
2019-12-07 10:00:00 5.4 0 Calma 5 Noroeste 0 -- -- 93
2019-12-07 09:00:00 3.7 2 Nordeste 19 Este 0 -- -- 97
2019-12-07 08:00:00 3.5 4 Sudeste 11 Este 0 -- -- 96
2019-12-07 07:00:00 3.8 5 Nordeste 18 Este 0 -- -- 97
2019-12-07 06:00:00 3.9 8 Este 15 Nordeste 0 -- -- 96
2019-12-07 05:00:00 4 3 Nordeste 12 Este 0 -- -- 93
2019-12-07 04:00:00 4.2 4 Este 18 Este 0 -- -- 94
2019-12-07 03:00:00 4.3 10 Nordeste 21 Este 0 -- -- 95
2019-12-07 02:00:00 4.1 4 Nordeste 10 Este 0 -- -- 97
2019-12-07 01:00:00 4.3 4 Sudeste 16 Este 0 -- -- 97
2019-12-07 00:00:00 4 7 Este 14 Nordeste 0 -- -- 99
2019-12-06 23:00:00 4.3 6 Nordeste 15 Nordeste 0 -- -- 98
2019-12-06 22:00:00 4.5 4 Este 26 Nordeste 0 -- -- 98
2019-12-06 21:00:00 4.6 13 Este 25 Este 0 -- -- 99
2019-12-06 20:00:00 4.6 7 Nordeste 16 Nordeste 0 -- -- 97
2019-12-06 19:00:00 5 8 Este 14 Este 0 -- -- 97
2019-12-06 18:00:00 5.7 5 Este 11 Este 0 -- -- 94
2019-12-06 17:00:00 6.7 5 Nordeste 11 Nordeste 0 -- -- 90
2019-12-06 16:00:00 7.4 4 Nordeste 12 Nordeste 0 -- -- 84
2019-12-06 15:00:00 9.7 6 Oeste 13 Oeste 0 -- -- 74
2019-12-06 14:00:00 8.4 5 Nordeste 22 Este 0 -- -- 79
2019-12-06 13:00:00 7.1 12 Este 28 Este 0 -- -- 81
2019-12-06 12:00:00 6.3 13 Este 34 Nordeste 0 -- -- 87
2019-12-06 11:00:00 5.8 17 Este 32 Este 0 -- -- 88
2019-12-06 10:00:00 4.6 13 Este 31 Este 0 -- -- 95
2019-12-06 09:00:00 4 13 Este 34 Nordeste 0 -- -- 96
2019-12-06 08:00:00 4.1 17 Este 36 Este 0 -- -- 96
2019-12-06 07:00:00 4.1 17 Este 34 Este 0 -- -- 97
2019-12-06 06:00:00 4.1 21 Este 37 Este 0 -- -- 95
2019-12-06 05:00:00 3.8 13 Nordeste 25 Este 0 -- -- 95
2019-12-06 04:00:00 4.4 12 Este 31 Nordeste 0 -- -- 92
2019-12-06 03:00:00 4.7 18 Nordeste 35 Este 0 -- -- 90
2019-12-06 02:00:00 4.8 21 Este 45 Este 0 -- -- 90
2019-12-06 01:00:00 4.6 18 Este 36 Este 0 -- -- 91
2019-12-06 00:00:00 4.5 16 Este 30 Este 0 -- -- 91
2019-12-05 23:00:00 5.2 8 Este 23 Este 0 -- -- 86
2019-12-05 22:00:00 5.3 6 Sudeste 22 Nordeste 0 -- -- 84
2019-12-05 21:00:00 6.3 13 Nordeste 25 Este 0 -- -- 76
2019-12-05 20:00:00 5.7 10 Nordeste 20 Nordeste 0 -- -- 80
2019-12-05 19:00:00 5.3 5 Nordeste 14 Nordeste 0 -- -- 89
2019-12-05 18:00:00 6.2 9 Este 20 Este 0 -- -- 84
2019-12-05 17:00:00 7.1 6 Este 17 Este 0 -- -- 82
2019-12-05 16:00:00 7.8 9 Nordeste 18 Nordeste 0 -- -- 79
2019-12-05 15:00:00 8.1 10 Este 19 Este 0 -- -- 79
2019-12-05 14:00:00 8.2 5 Este 15 Este 0 -- -- 77
2019-12-05 13:00:00 7.9 8 Nordeste 16 Nordeste 0 -- -- 77
2019-12-05 12:00:00 6.6 8 Nordeste 20 Este 0 -- -- 84
2019-12-05 11:00:00 5.2 9 Este 19 Este 0 -- -- 94
2019-12-05 10:00:00 4.9 8 Este 21 Este 0 -- -- 90
2019-12-05 09:00:00 3.8 11 Este 23 Este 0 -- -- 95
2019-12-05 08:00:00 3.2 9 Este 25 Este 0 -- -- 97
2019-12-05 07:00:00 3.5 11 Este 21 Este 0 -- -- 95
2019-12-05 06:00:00 3.6 9 Este 16 Este 0 -- -- 95
2019-12-05 05:00:00 3.7 4 Este 14 Este 0 -- -- 91
2019-12-05 04:00:00 4.3 2 Oeste 8 Norte 0 -- -- 85
2019-12-05 03:00:00 4.5 0 Calma 13 Este 0 -- -- 87
2019-12-05 02:00:00 4.4 6 Nordeste 12 Noroeste 0 -- -- 86
2019-12-05 01:00:00 3.9 4 Noroeste 6 Noroeste 0 -- -- 87
2019-12-05 00:00:00 4.2 3 Sudeste 6 Norte 0 -- -- 86
2019-12-04 23:00:00 4.9 4 Nordeste 21 Nordeste 0 -- -- 81
2019-12-04 22:00:00 4.3 4 Nordeste 12 Este 0 -- -- 88
2019-12-04 21:00:00 4.5 3 Norte 13 Este 0 -- -- 89
2019-12-04 20:00:00 4.7 8 Nordeste 17 Este 0 -- -- 88
2019-12-04 19:00:00 4.7 6 Este 13 Este 0 -- -- 88
2019-12-04 18:00:00 5.5 6 Nordeste 19 Norte 0 -- -- 84
2019-12-04 17:00:00 6 4 Norte 17 Norte 0 -- -- 85
2019-12-04 16:00:00 7.1 6 Norte 14 Norte 0 -- -- 81
2019-12-04 15:00:00 6.9 6 Norte 22 Noroeste 0 -- -- 88
2019-12-04 14:00:00 6.8 6 Noroeste 14 Oeste 0 -- -- 83
2019-12-04 13:00:00 5.8 3 Noroeste 17 Este 0 -- -- 87
2019-12-04 12:00:00 5.2 7 Este 23 Este 0 -- -- 86
2019-12-04 11:00:00 4.9 8 Este 21 Este 0 -- -- 86
2019-12-04 10:00:00 3.6 8 Este 17 Este 0 -- -- 91
2019-12-04 09:00:00 2.5 8 Este 15 Este 0 -- -- 95
2019-12-04 08:00:00 2.2 7 Este 13 Este 0 -- -- 93
2019-12-04 07:00:00 1.3 3 Norte 6 Nordeste 0 -- -- 99
2019-12-04 06:00:00 1.3 2 Nordeste 18 Nordeste 0 -- -- 97
2019-12-04 05:00:00 1.9 7 Nordeste 26 Este 0 -- -- 96
2019-12-04 04:00:00 1.9 13 Este 28 Este 0 -- -- 96
2019-12-04 03:00:00 2 15 Este 30 Este 0 -- -- 97
2019-12-04 02:00:00 2.5 16 Este 30 Este 0 -- -- 93
2019-12-04 01:00:00 2.3 18 Este 31 Este 0 -- -- 96
2019-12-04 00:00:00 3.3 16 Este 29 Este 0 -- -- 95
2019-12-03 23:00:00 3.3 13 Este 32 Este 0 -- -- 96
2019-12-03 22:00:00 3.4 15 Este 34 Este 0 -- -- 95
2019-12-03 21:00:00 3.2 13 Este 37 Este 0 -- -- 95
2019-12-03 20:00:00 2.9 16 Este 33 Este 0 -- -- 97
2019-12-03 19:00:00 2.5 16 Este 30 Este 0 -- -- 97
2019-12-03 18:00:00 3 13 Este 29 Este 0 -- -- 96
2019-12-03 17:00:00 3.9 13 Este 26 Este 0 -- -- 89
2019-12-03 16:00:00 4.8 14 Este 26 Este 0 -- -- 85
2019-12-03 15:00:00 5.1 15 Este 27 Este 0 -- -- 82
2019-12-03 14:00:00 5.1 16 Este 34 Este 0 -- -- 80
2019-12-03 13:00:00 5.4 14 Este 32 Este -- -- -- 77
2019-12-03 12:00:00 5.2 15 Este -- -- -- -- -- 77
2019-12-03 11:00:00 4.6 12 Este 29 Este -- -- -- 77
2019-12-03 10:00:00 3.7 12 Este 28 Este -- -- -- 81
2019-12-03 09:00:00 2.6 13 Este 29 Nordeste -- -- -- 85
2019-12-03 08:00:00 2.1 12 Este 22 Este -- -- -- 83
2019-12-03 07:00:00 2.2 9 Este 20 Este -- -- -- 84
2019-12-03 06:00:00 2.1 6 Este 21 Este -- -- -- 84
2019-12-03 05:00:00 2.8 10 Este 21 Este -- -- -- 80
2019-12-03 04:00:00 2.6 12 Este 25 Este -- -- -- 81
2019-12-03 03:00:00 1.6 12 Este 24 Este -- -- -- 90
2019-12-03 02:00:00 1.6 8 Este 17 Nordeste -- -- -- 91
2019-12-03 01:00:00 2.1 5 Este 15 Nordeste -- -- -- 91
2019-12-03 00:00:00 2 4 Este 10 Nordeste -- -- -- 94
2019-12-02 23:00:00 2.3 3 Este 13 Sudeste -- -- -- 91
2019-12-02 22:00:00 2.7 5 Nordeste 21 Nordeste -- -- -- 89
2019-12-02 21:00:00 2.7 4 Este 9 Nordeste -- -- -- 88
2019-12-02 20:00:00 3.4 5 Este 15 Nordeste -- -- -- 85
2019-12-02 19:00:00 3.6 4 Nordeste 13 Norte -- -- -- 82
2019-12-02 18:00:00 4.2 3 Norte 17 Nordeste -- -- -- 84
2019-12-02 17:00:00 5.4 6 Este 26 Nordeste -- -- -- 79
2019-12-02 16:00:00 6.2 12 Este 25 Nordeste -- -- -- 77
2019-12-02 15:00:00 5.9 4 Este 23 Este -- -- -- 80
2019-12-02 14:00:00 5.3 8 Este 26 Este -- -- -- 84
2019-12-02 13:00:00 5.3 10 Este 21 Nordeste -- -- -- 85
2019-12-02 12:00:00 5.4 10 Este 18 Este -- -- -- 79
2019-12-02 11:00:00 4.9 4 Norte 17 Nordeste -- -- -- 87
2019-12-02 10:00:00 3.5 8 Este 27 Nordeste -- -- -- 88
2019-12-02 09:00:00 1.7 6 Este 19 Este -- -- -- 98
2019-12-02 08:00:00 1.7 3 Nordeste 14 Este -- -- -- 98
2019-12-02 07:00:00 2.2 4 Nordeste 18 Este -- -- -- 99
2019-12-02 06:00:00 2.4 10 Este 23 Este -- -- -- 100
2019-12-02 05:00:00 2.3 3 Nordeste 12 Noroeste -- -- -- 100
2019-12-02 04:00:00 2.3 8 Nordeste 17 Nordeste -- -- -- 100
2019-12-02 03:00:00 2.2 4 Nordeste 10 Este -- -- -- 100
2019-12-02 02:00:00 2.3 4 Este 12 Nordeste -- -- -- 100
2019-12-02 01:00:00 2.5 6 Este 18 Norte -- -- -- 100
2019-12-02 00:00:00 3 7 Nordeste 22 Nordeste -- -- -- 98
2019-12-01 23:00:00 3.1 10 Norte 28 Norte -- -- -- 96
2019-12-01 22:00:00 2.9 8 Nordeste 26 Noroeste -- -- -- 97
2019-12-01 21:00:00 2.9 8 Nordeste 28 Norte -- -- -- 99
2019-12-01 20:00:00 3.1 9 Nordeste 20 Nordeste -- -- -- 100
2019-12-01 19:00:00 2.7 6 Norte 15 Nordeste -- -- -- 100
2019-12-01 18:00:00 3.2 4 Norte 12 Nordeste -- -- -- 100
2019-12-01 17:00:00 3.9 5 Este 12 Nordeste -- -- -- 100
2019-12-01 16:00:00 4.6 7 Este 12 Nordeste -- -- -- 100
2019-12-01 15:00:00 4.8 5 Este 15 Noroeste -- -- -- 100
2019-12-01 14:00:00 4.9 2 Este 10 Sudoeste -- -- -- 100
2019-12-01 13:00:00 5 3 Sur 12 Sur -- -- -- 100
2019-12-01 12:00:00 4.6 4 Sudoeste 13 Sudoeste -- -- -- 100
2019-12-01 11:00:00 4.4 6 Sudoeste 20 Sudoeste -- -- -- 100
2019-12-01 10:00:00 4.4 5 Sur 20 Sudeste -- -- -- 100
2019-12-01 09:00:00 4.2 8 Sur 28 Sur 0 -- -- 100
2019-12-01 08:00:00 4 9 Sur 26 Sur 0 -- -- 100
2019-12-01 07:00:00 3.8 6 Sur 28 Sudoeste 0 -- -- 100
2019-12-01 06:00:00 3.8 9 Sur 35 Sudoeste 0 -- -- 100
2019-12-01 05:00:00 3.8 11 Sur 34 Sur 0 -- -- 100
2019-12-01 04:00:00 3.6 14 Sudoeste 33 Sudoeste 0 -- -- 100
2019-12-01 03:00:00 3.1 9 Sudoeste 19 Sudoeste 0 -- -- 100
2019-12-01 02:00:00 2.3 11 Oeste 19 Oeste 0 -- -- 100
2019-12-01 01:00:00 2.2 10 Oeste 22 Oeste 0 -- -- 98
2019-12-01 00:00:00 2.6 9 Oeste 26 Oeste 0 -- -- 93
2019-11-30 23:00:00 2.6 5 Oeste 42 Oeste 0 -- -- 88
2019-11-30 22:00:00 2.9 19 Oeste 43 Oeste 0 -- -- 82
2019-11-30 21:00:00 3.3 23 Noroeste 44 Noroeste 0 -- -- 100
2019-11-30 20:00:00 5.5 14 Oeste 36 Noroeste 0 -- -- 100
2019-11-30 19:00:00 6.7 19 Sudoeste 39 Sudoeste 0 -- -- 100
2019-11-30 18:00:00 8.3 13 Sudoeste 32 Sudoeste 0 -- -- 100
2019-11-30 17:00:00 8.3 15 Sudoeste 43 Sudoeste 0 -- -- 100
2019-11-30 16:00:00 8.4 20 Sudoeste 52 Sudoeste 0 -- -- 100
2019-11-30 15:00:00 8.4 10 Sudoeste 28 Sudoeste 0 -- -- 100
2019-11-30 14:00:00 8.1 9 Sur 28 Sudeste 0 -- -- 100
2019-11-30 13:00:00 7.9 8 Sur 24 Sur 0 -- -- 100
2019-11-30 12:00:00 7.6 9 Sur 31 Sur 0 -- -- 100
2019-11-30 11:00:00 7.6 9 Sur 24 Sudoeste 0 -- -- 100
2019-11-30 10:00:00 7.4 8 Sur 25 Sudoeste 0 -- -- 100
2019-11-30 09:00:00 7.3 9 Sur 24 Sudoeste 0 -- -- 100
2019-11-30 08:00:00 7.5 11 Sudoeste 29 Sudoeste 0 -- -- 100
2019-11-30 07:00:00 7.7 10 Sudoeste 31 Sudoeste 0 -- -- 100
2019-11-30 06:00:00 7.9 14 Sudoeste 30 Sudoeste 0 -- -- 100
2019-11-30 05:00:00 8.3 11 Sudoeste 27 Sudoeste 0 -- -- 100
2019-11-30 04:00:00 8.5 13 Sudoeste 24 Oeste 0 -- -- 100
2019-11-30 03:00:00 8.6 12 Sudoeste 27 Sudoeste 0 -- -- 100
2019-11-30 02:00:00 8.9 12 Sudoeste 26 Sudoeste 0 -- -- 100
2019-11-30 01:00:00 8.9 7 Sudoeste 25 Sudoeste 0 -- -- 100
2019-11-30 00:00:00 9 7 Sudoeste 22 Oeste 0 -- -- 100
2019-11-29 23:00:00 9 8 Sudoeste 27 Sudoeste 0 -- -- 100
2019-11-29 22:00:00 9 10 Sudoeste 23 Sur 0 -- -- 100
2019-11-29 21:00:00 9.2 8 Sudoeste 22 Sur 0 -- -- 100
2019-11-29 20:00:00 9.2 7 Sur 22 Oeste 0 -- -- 100
2019-11-29 19:00:00 9.3 7 Sudoeste 19 Sudoeste 0 -- -- 100
2019-11-29 18:00:00 9.3 8 Sudoeste 22 Sudoeste 0 -- -- 100
2019-11-29 17:00:00 9.4 8 Sudoeste 21 Oeste 0 -- -- 100
2019-11-29 16:00:00 9.5 9 Sudoeste 24 Sudoeste 0 -- -- 100
2019-11-29 15:00:00 9.3 9 Sudoeste 22 Sudoeste 0 -- -- 100
2019-11-29 14:00:00 9.2 7 Sudoeste 20 Sudoeste 0 -- -- 100
2019-11-29 13:00:00 9 10 Sudoeste 24 Sudoeste 0 -- -- 100
2019-11-29 12:00:00 8.8 10 Sudoeste 24 Oeste 0 -- -- 100
2019-11-29 11:00:00 8.7 9 Sudoeste 25 Sudoeste 0 -- -- 100
2019-11-29 10:00:00 8.5 12 Sudoeste 28 Sudoeste 0 -- -- 100
2019-11-29 09:00:00 8.5 8 Sudoeste 21 Sudoeste 0 -- -- 100
2019-11-29 08:00:00 8.4 6 Sudoeste 18 Sudoeste 0 -- -- 100
2019-11-29 07:00:00 8.5 7 Sudoeste 21 Sudoeste 0 -- -- 100
2019-11-29 06:00:00 8.5 8 Sudoeste 25 Sudoeste 0 -- -- 100
2019-11-29 05:00:00 8.5 13 Sudoeste 25 Sudoeste 0 -- -- 100
2019-11-29 04:00:00 8.3 8 Sudoeste 23 Sudoeste 0 -- -- 100
2019-11-29 03:00:00 8.4 12 Sudoeste 32 Sudoeste 0 -- -- 100
2019-11-29 02:00:00 8.2 13 Sudoeste 35 Sudoeste 0 -- -- 100
2019-11-29 01:00:00 8 14 Sudoeste 35 Sudoeste 0 -- -- 100
2019-11-29 00:00:00 8.1 16 Sudoeste 36 Sudoeste 0 -- -- 100
2019-11-28 23:00:00 8 16 Sudoeste 39 Sudoeste 0 -- -- 100
2019-11-28 22:00:00 7.9 16 Sudoeste 33 Oeste 0 -- -- 100
2019-11-28 21:00:00 7.7 17 Sudoeste 35 Sudoeste 0 -- -- 100
2019-11-28 20:00:00 7.6 15 Sudoeste 35 Sudoeste 0 -- -- 100
2019-11-28 19:00:00 7.4 13 Sudoeste 33 Sur 0 -- -- 100
2019-11-28 18:00:00 7.2 14 Sudoeste 35 Sudoeste 0 -- -- 100
2019-11-28 17:00:00 7.2 10 Sudoeste 32 Sudoeste 0 -- -- 100
2019-11-28 16:00:00 7 17 Sudoeste 32 Sudoeste 0 -- -- 100
2019-11-28 15:00:00 7.3 8 Sur 27 Sur 0 -- -- 100
2019-11-28 14:00:00 7 5 Sudoeste 20 Sur 0 -- -- 100
2019-11-28 13:00:00 7 8 Sudoeste 26 Sudoeste 0 -- -- 100
2019-11-28 12:00:00 6.7 14 Sudoeste 30 Sudoeste 0 -- -- 100
2019-11-28 11:00:00 6.4 8 Sudoeste 22 Sudoeste 0 -- -- 100
2019-11-28 10:00:00 6.1 6 Sudoeste 18 Sudoeste 0 -- -- 100
2019-11-28 09:00:00 5.9 6 Sudoeste 20 Oeste 0 -- -- 100
2019-11-28 08:00:00 5.8 7 Sudoeste 19 Sudoeste 0 -- -- 100
2019-11-28 07:00:00 5.5 9 Sudoeste 19 Sudoeste 0 -- -- 100
2019-11-28 06:00:00 5.4 11 Oeste 28 Sudoeste 0 -- -- 100
2019-11-28 05:00:00 5.7 13 Sudoeste 26 Sudoeste 0 -- -- 100
2019-11-28 04:00:00 5.8 12 Sudoeste 32 Sudoeste 0 -- -- 100
2019-11-28 03:00:00 5.7 15 Sudoeste 30 Sudoeste 0 -- -- 100
2019-11-28 02:00:00 5.3 13 Sudoeste 27 Sudoeste 0 -- -- 100
2019-11-28 01:00:00 5.3 10 Sudoeste 27 Sudoeste 0 -- -- 100
2019-11-28 00:00:00 5.4 14 Oeste 30 Sudoeste 0 -- -- 100
2019-11-27 23:00:00 5.5 17 Sudoeste 30 Sudoeste 0 -- -- 100
2019-11-27 22:00:00 5.7 14 Sudoeste 35 Sudoeste 0 -- -- 100
2019-11-27 21:00:00 5.7 19 Sudoeste 38 Sudoeste 0 -- -- 100
2019-11-27 20:00:00 5.8 15 Oeste 32 Sudoeste 0 -- -- 100
2019-11-27 19:00:00 6 12 Sudoeste 30 Sudoeste 0 -- -- 100
2019-11-27 18:00:00 6 15 Sudoeste 36 Sudoeste 0 -- -- 100
2019-11-27 17:00:00 5.8 18 Oeste 37 Sudoeste 0.2 -- -- 100
2019-11-27 16:00:00 6 14 Oeste 31 Sudoeste 0.2 -- -- 100
2019-11-27 15:00:00 5.9 15 Sudoeste 31 Sudoeste 0.2 -- -- 100
2019-11-27 14:00:00 5.7 15 Sudoeste 28 Sudoeste 0 -- -- 100
2019-11-27 06:00:00 4.6 13 Oeste 32 Oeste 0 -- -- 100
2019-11-27 05:00:00 5.2 17 Oeste 36 Oeste 0 -- -- 100
2019-11-27 04:00:00 5.7 18 Oeste 41 Oeste 0 -- -- 100
2019-11-27 03:00:00 6.3 21 Oeste 41 Sudoeste 0.2 -- -- 100
2019-11-27 02:00:00 7 17 Sudoeste 33 Sudoeste 0 -- -- 100
2019-11-27 01:00:00 7.4 15 Sudoeste 39 Sudoeste 2 -- -- 100
2019-11-27 00:00:00 7.7 14 Sudoeste 45 Sudoeste 2.6 -- -- 100
2019-11-26 23:00:00 7.9 21 Sudoeste 46 Sudoeste 0.6 -- -- 100
2019-11-26 22:00:00 7.7 20 Sudoeste 41 Sur 0 -- -- 100
2019-11-26 21:00:00 7.8 22 Sudoeste 44 Sudoeste 0 -- -- 100
2019-11-26 20:00:00 8.6 20 Sudoeste 54 Sudoeste 0 -- -- 100
2019-11-26 19:00:00 8.9 19 Sudoeste 48 Sudoeste 3 -- -- 100
2019-11-26 18:00:00 9.5 12 Sur 41 Sur 4.8 -- -- 100
2019-11-26 17:00:00 9.3 12 Sur 33 Sur 6.4 -- -- 100
2019-11-26 16:00:00 9.2 13 Sur 36 Sur 3.8 -- -- 100
2019-11-26 15:00:00 9.2 9 Sur 28 Sudeste 7.6 -- -- 100
2019-11-26 14:00:00 9.2 10 Sur 28 Sudeste 2.6 -- -- 100
2019-11-26 13:00:00 8.8 8 Sur 30 Sur 1.8 -- -- 100
2019-11-26 12:00:00 8.6 12 Sur 29 Sudoeste 2.2 -- -- 100
2019-11-26 11:00:00 8.6 12 Sur 31 Sur 0.4 -- -- 100
2019-11-26 10:00:00 8.4 6 Sur 22 Sur 0.2 -- -- 100
2019-11-26 09:00:00 8.2 7 Sur 23 Sudeste 0.6 -- -- 100
2019-11-26 08:00:00 7.9 6 Sur 17 Sur 1.4 -- -- 100
2019-11-26 07:00:00 7.3 4 Sudeste 12 Este 1 -- -- 100
2019-11-26 06:00:00 7.2 3 Sudeste 7 Sudeste 0.4 -- -- 100
2019-11-26 05:00:00 7.4 3 Sudoeste 14 Oeste 0.4 -- -- 100
2019-11-26 04:00:00 7.2 8 Sudoeste 16 Sudoeste 0.2 -- -- 100
2019-11-26 03:00:00 6.9 8 Oeste 18 Oeste 0 -- -- 100
2019-11-26 02:00:00 6.8 10 Oeste 21 Sudoeste 0 -- -- 100
2019-11-26 01:00:00 7.2 10 Sudoeste 28 Sudoeste 0 -- -- 100
2019-11-26 00:00:00 7.8 14 Oeste 26 Oeste 0 -- -- 100
2019-11-25 23:00:00 8.1 12 Oeste 26 Oeste 0 -- -- 100
2019-11-25 22:00:00 8.3 14 Sudoeste 25 Sudoeste 0 -- -- 100
2019-11-25 21:00:00 8.5 13 Sudoeste 32 Sudoeste 0 -- -- 100
2019-11-25 20:00:00 8.5 16 Oeste 30 Oeste 0 -- -- 100
2019-11-25 19:00:00 8.4 12 Oeste 26 Oeste 0 -- -- 100
2019-11-25 18:00:00 8.4 13 Sudoeste 27 Oeste 0 -- -- 100
2019-11-25 17:00:00 8.5 15 Oeste 28 Sudoeste 0 -- -- 100
2019-11-25 16:00:00 8.9 11 Oeste 27 Sudoeste 0 -- -- 100
2019-11-25 15:00:00 8.6 15 Sudoeste 28 Oeste 0 -- -- 100
2019-11-25 14:00:00 8.7 13 Sudoeste 25 Sudoeste 0 -- -- 100
2019-11-25 13:00:00 8.6 13 Oeste 24 Sudoeste 0 -- -- 100
2019-11-25 12:00:00 8.9 13 Oeste 28 Oeste 0 -- -- 100
2019-11-25 11:00:00 9 13 Oeste 22 Oeste 0 -- -- 100
2019-11-25 10:00:00 8.1 9 Oeste 30 Sudoeste 0 -- -- 100
2019-11-25 09:00:00 7.9 15 Sudoeste 35 Sudoeste 0.2 -- -- 100
2019-11-25 08:00:00 8 9 Oeste 19 Sudoeste 0.4 -- -- 100
2019-11-25 07:00:00 7.9 13 Sudoeste 26 Sudoeste 0.2 -- -- 100
2019-11-25 06:00:00 7.9 13 Sudoeste 24 Sudoeste 0.2 -- -- 100
2019-11-25 05:00:00 7.8 10 Sudoeste 22 Sudoeste 1.6 -- -- 100
2019-11-25 04:00:00 7.6 10 Sudoeste 26 Sudoeste 1.2 -- -- 100
2019-11-25 03:00:00 6.9 7 Sur 26 Sudoeste 1.6 -- -- 100
2019-11-25 02:00:00 6.5 6 Sur 19 Sudoeste 1.4 -- -- 100
2019-11-25 01:00:00 6.3 6 Sur 28 Sudoeste 1.4 -- -- 100
2019-11-25 00:00:00 6.3 6 Sur 21 Sudoeste 1.8 -- -- 100
2019-11-24 23:00:00 5.9 7 Sur 18 Sur 1.2 -- -- 100
2019-11-24 22:00:00 5.6 4 Sur 14 Sudoeste 1.2 -- -- 100
2019-11-24 21:00:00 5.6 6 Sudoeste 26 Sudoeste 0.4 -- -- 100
2019-11-24 20:00:00 5.6 13 Sudoeste 28 Sudoeste 0.4 -- -- 100
2019-11-24 19:00:00 5.1 13 Sudoeste 25 Sudoeste 0.2 -- -- 100
2019-11-24 18:00:00 4.9 8 Oeste 18 Oeste 0 -- -- 100
2019-11-24 17:00:00 4.7 10 Oeste 23 Oeste 0 -- -- 99
2019-11-24 16:00:00 4.7 14 Sudoeste 31 Oeste 0 -- -- 94
2019-11-24 15:00:00 6.7 11 Sudoeste 26 Sudoeste 0 -- -- 82
2019-11-24 14:00:00 8.1 10 Oeste 25 Oeste 0 -- -- 71
2019-11-24 13:00:00 7.8 9 Oeste 19 Sudoeste 0 -- -- 73
2019-11-24 12:00:00 6.3 9 Oeste 30 Noroeste 0 -- -- 76
2019-11-24 11:00:00 4.7 15 Noroeste 30 Noroeste 0 -- -- 77
2019-11-24 10:00:00 3.2 11 Norte 31 Noroeste 0 -- -- 71
2019-11-24 09:00:00 1.8 15 Noroeste 30 Noroeste 0 -- -- 75
2019-11-24 08:00:00 1.5 13 Noroeste 31 Noroeste 0 -- -- 79
2019-11-24 07:00:00 1.4 9 Noroeste 35 Noroeste 0 -- -- 80
2019-11-24 06:00:00 1.7 18 Noroeste 44 Noroeste 0 -- -- 79
2019-11-24 05:00:00 1.7 20 Noroeste 38 Noroeste 0 -- -- 83
2019-11-24 04:00:00 2 25 Noroeste 45 Noroeste 0 -- -- 88
2019-11-24 03:00:00 2.1 19 Noroeste 39 Noroeste 0 -- -- 89
2019-11-24 02:00:00 2.3 21 Noroeste 37 Noroeste 0 -- -- 90
2019-11-24 01:00:00 2.5 13 Noroeste 28 Noroeste 0 -- -- 92
2019-11-24 00:00:00 2.7 14 Noroeste 30 Noroeste 0 -- -- 89
2019-11-23 23:00:00 2.7 10 Noroeste 23 Noroeste 0 -- -- 90
2019-11-23 22:00:00 3.2 9 Oeste 29 Oeste 0 -- -- 90
2019-11-23 21:00:00 3.2 10 Oeste 24 Oeste 0 -- -- 88
2019-11-23 20:00:00 3.4 7 Oeste 17 Oeste 0 -- -- 85
2019-11-23 19:00:00 3.5 3 Sur 20 Sudoeste 0 -- -- 89
2019-11-23 18:00:00 4.1 6 Sudoeste 22 Oeste 0 -- -- 85
2019-11-23 17:00:00 4.2 9 Sudoeste 21 Sudoeste 0 -- -- 81
2019-11-23 16:00:00 4.8 8 Sudoeste 38 Noroeste 0 -- -- 79
2019-11-23 15:00:00 5.3 14 Oeste 40 Sudoeste 0 -- -- 82
2019-11-23 14:00:00 4.1 13 Oeste 35 Oeste 0 -- -- 85
2019-11-23 13:00:00 3.2 8 Sudoeste 26 Oeste 0 -- -- 91
2019-11-23 12:00:00 3.2 6 Sudoeste 46 Noroeste 0 -- -- 90
2019-11-23 11:00:00 2.6 20 Noroeste 49 Noroeste 0.2 -- -- 89
2019-11-23 10:00:00 1.8 15 Noroeste 38 Oeste 0 -- -- 92
2019-11-23 09:00:00 1.3 4 Sudoeste 37 Oeste 0 -- -- 96
2019-11-23 08:00:00 1.3 9 Oeste 42 Oeste 0 -- -- 95
2019-11-23 07:00:00 1.1 7 Oeste 38 Oeste 0 -- -- 94
2019-11-23 06:00:00 1.4 7 Oeste 34 Oeste 0 -- -- 96
2019-11-23 05:00:00 1.7 9 Sudoeste 32 Sudoeste 0 -- -- 100
2019-11-23 04:00:00 1.9 12 Oeste 47 Sudoeste 0 -- -- 100
2019-11-23 03:00:00 1.9 18 Oeste 43 Oeste 0 -- -- 100
2019-11-23 02:00:00 2 22 Oeste 49 Oeste 0 -- -- 100
2019-11-23 01:00:00 3 13 Oeste 80 Oeste 2.8 -- -- 100
2019-11-23 00:00:00 3.8 28 Sudoeste 56 Sudoeste 0.4 -- -- 100
2019-11-22 23:00:00 4.4 26 Sudoeste 57 Sudoeste 0.8 -- -- 100
2019-11-22 22:00:00 4.8 24 Sudoeste 50 Sudoeste 0.8 -- -- 100
2019-11-22 21:00:00 4.5 19 Sudoeste 39 Oeste 0 -- -- 100
2019-11-22 20:00:00 4.7 20 Sudoeste 39 Sudoeste 0 -- -- 100
2019-11-22 19:00:00 5.1 15 Sudoeste 45 Sudoeste 0 -- -- 100
2019-11-22 18:00:00 6 16 Sudoeste 45 Sudoeste 0 -- -- 100
2019-11-22 17:00:00 6.1 25 Sudoeste 47 Sudoeste 0 -- -- 100
2019-11-22 16:00:00 8 16 Sudoeste 45 Sudoeste 0.2 -- -- 100
2019-11-22 15:00:00 8 12 Sudoeste 36 Sudoeste 0 -- -- 100
2019-11-22 14:00:00 8 13 Sudoeste 38 Sudoeste 1 -- -- 100
2019-11-22 13:00:00 7.3 12 Sur 35 Sur 6.6 -- -- 100
2019-11-22 12:00:00 6.7 13 Sudeste 34 Sudeste 6 -- -- 100
2019-11-22 11:00:00 6.3 12 Sudeste 34 Sudeste 6.4 -- -- 100
2019-11-22 10:00:00 5.7 11 Sudeste 31 Este 3.2 -- -- 100
2019-11-22 09:00:00 5.4 11 Sudeste 32 Sudeste 4 -- -- 100
2019-11-22 08:00:00 5.3 11 Sudeste 35 Sudeste 3.8 -- -- 100
2019-11-22 07:00:00 4.7 10 Sudeste 30 Sur 4.2 -- -- 100
2019-11-22 06:00:00 4.5 9 Sudeste 31 Sur 3 -- -- 100
2019-11-22 05:00:00 4.4 8 Sur 29 Sur 1.8 -- -- 100
2019-11-22 04:00:00 4.6 10 Sur 30 Sudoeste 0.6 -- -- 100
2019-11-22 03:00:00 4.8 11 Sur 32 Sur 2.6 -- -- 100
2019-11-22 02:00:00 4.9 8 Sur 22 Sur 1.6 -- -- 100
2019-11-22 01:00:00 4.7 8 Sur 18 Sur 1.6 -- -- 100
2019-11-22 00:00:00 4.7 7 Sur 18 Sudoeste 0.6 -- -- 100
2019-11-21 23:00:00 4.6 7 Sur 17 Sur 1 -- -- 100
2019-11-21 22:00:00 4.4 5 Sudeste 14 Sur 1 -- -- 100
2019-11-21 21:00:00 4 3 Sudeste 13 Sudeste 0 -- -- 100
2019-11-21 20:00:00 3.2 3 Sudeste 6 Sudeste 0 -- -- 100
2019-11-21 19:00:00 3.7 0 Calma 5 Sudoeste 0 -- -- 100
2019-11-21 18:00:00 4.4 3 Sudoeste 7 Sudoeste 0 -- -- 99
2019-11-21 17:00:00 5.2 3 Sudoeste 13 Sudoeste 0 -- -- 100
2019-11-21 16:00:00 5.1 6 Sudoeste 17 Sudoeste 0 -- -- 100
2019-11-21 15:00:00 4.7 8 Sudoeste 17 Oeste 0.2 -- -- 100
2019-11-21 14:00:00 4.6 9 Sudoeste 19 Oeste 0 -- -- 100
2019-11-21 13:00:00 4.4 11 Sudoeste 22 Sudoeste 0 -- -- 100
2019-11-21 12:00:00 4.4 9 Sudoeste 22 Sudoeste 0 -- -- 100
2019-11-21 11:00:00 4 6 Sudoeste 16 Sudoeste 2.4 -- -- 100
2019-11-21 10:00:00 3.8 5 Sur 16 Sudoeste 0.2 -- -- 100
2019-11-21 09:00:00 3.5 5 Sur 19 Sur 0.4 -- -- 100
2019-11-21 08:00:00 -- -- -- -- -- -- -- -- --
2019-11-21 07:00:00 -- -- -- -- -- -- -- -- --
2019-11-21 06:00:00 -- -- -- -- -- -- -- -- --
2019-11-21 05:00:00 -- -- -- -- -- -- -- -- --
2019-11-21 04:00:00 -- -- -- -- -- -- -- -- --
2019-11-21 03:00:00 -- -- -- -- -- -- -- -- --
2019-11-21 02:00:00 -- -- -- -- -- -- -- -- --
2019-11-21 01:00:00 -- -- -- -- -- -- -- -- --
2019-11-21 00:00:00 -- -- -- -- -- -- -- -- --
2019-11-20 23:00:00 -- -- -- -- -- -- -- -- --
2019-11-20 22:00:00 -- -- -- -- -- -- -- -- --
2019-11-20 21:00:00 -- -- -- -- -- -- -- -- --
2019-11-20 20:00:00 -- -- -- -- -- -- -- -- --
2019-11-20 19:00:00 1.7 3 Sudeste 9 Sudeste 0.6 -- -- 100
2019-11-20 18:00:00 1.2 0 Calma 15 Este 0.6 -- -- 100
2019-11-20 17:00:00 1 3 Este 16 Este 2 -- -- 100
2019-11-20 16:00:00 1.1 8 Este 17 Este 1.2 -- -- 100
2019-11-20 15:00:00 1 6 Este 16 Este 1.6 -- -- 100
2019-11-20 14:00:00 0.4 6 Este 16 Este 1.8 -- -- 100
2019-11-20 13:00:00 0.2 4 Este 15 Este 1 -- -- 100
2019-11-20 12:00:00 0 6 Este 19 Este 1.2 -- -- 100
2019-11-20 11:00:00 0 8 Este 17 Este 1.4 -- -- 100
2019-11-20 10:00:00 0 8 Este 18 Este 0.2 -- -- 100
2019-11-20 09:00:00 0.4 7 Este 24 Este 0.6 -- -- 99
2019-11-20 08:00:00 0.8 8 Este 23 Este 0 -- -- 96
2019-11-20 07:00:00 1.4 2 Este 15 Este 0 -- -- 95
2019-11-20 06:00:00 1.8 4 Sur 12 Sur 0.6 -- -- 93
2019-11-20 05:00:00 2.1 4 Este 9 Sudeste 0 -- -- 90
2019-11-20 04:00:00 2.3 2 Este 10 Este 0 -- -- 83
2019-11-20 03:00:00 2.3 3 Sudeste 11 Sudeste 0 -- -- 76
2019-11-20 02:00:00 2.5 2 Sudeste 8 Este 0 -- -- 87
2019-11-20 01:00:00 2.5 0 Calma 4 Sur 0 -- -- 83
2019-11-20 00:00:00 2.5 0 Calma 5 Este 0 -- -- 87
2019-11-19 23:00:00 2.7 0 Calma 4 Este 0 -- -- 87
2019-11-19 22:00:00 2.8 0 Calma 5 Sudoeste 0 -- -- 86
2019-11-19 21:00:00 2.7 0 Calma 3 Sudoeste 0 -- -- 85
2019-11-19 20:00:00 2.9 0 Calma 3 Sudoeste 0 -- -- 83
2019-11-19 19:00:00 2.9 0 Calma 2 Sudoeste 0 -- -- 81
2019-11-19 18:00:00 3.7 2 Oeste 4 Oeste 0 -- -- 75
2019-11-19 17:00:00 4.8 2 Sudoeste 5 Sudoeste 0 -- -- 74
2019-11-19 16:00:00 5.4 0 Calma 10 Sudoeste 0 -- -- 70
2019-11-19 15:00:00 6.2 3 Sudoeste 11 Oeste 0 -- -- 66
2019-11-19 14:00:00 5.9 0 Calma 8 Oeste 0 -- -- 65
2019-11-19 13:00:00 5.4 2 Este 10 Nordeste 0 -- -- 72
2019-11-19 12:00:00 5.5 4 Sudeste 12 Este 0 -- -- 74
2019-11-19 11:00:00 3.8 3 Este 7 Este 0 -- -- 80
2019-11-19 10:00:00 1.7 0 Calma 5 Este 0 -- -- 89
2019-11-19 09:00:00 0.5 3 Este -- -- 0 -- -- 92
2019-11-19 08:00:00 0.4 0 Calma 3 Sudeste 0 -- -- 92
2019-11-19 07:00:00 0.3 0 Calma 2 Sudeste 0 -- -- 94
2019-11-19 06:00:00 0.3 0 Calma 3 Sur 0 -- -- 92
2019-11-19 05:00:00 0.3 0 Calma 3 Sudeste 0 -- -- 90
2019-11-19 04:00:00 0.5 0 Calma 2 Este 0 -- -- 91
2019-11-19 03:00:00 0.5 0 Calma 4 Sudeste 0 -- -- 91
2019-11-19 02:00:00 0.5 0 Calma 4 Este 0 -- -- 91
2019-11-19 01:00:00 0.4 2 Sudeste 4 Sur 0 -- -- 87
2019-11-19 00:00:00 1.1 0 Calma 5 Sudoeste 0 -- -- 83
2019-11-18 23:00:00 1.3 2 Este 5 Este 0 -- -- 88
2019-11-18 22:00:00 1.1 4 Este 10 Este 0 -- -- 85
2019-11-18 21:00:00 2.3 5 Nordeste 9 Nordeste 0 -- -- 83
2019-11-18 20:00:00 1.9 0 Calma 12 Norte 0 -- -- 81
2019-11-18 19:00:00 2.4 8 Norte 18 Norte 0 -- -- 74
2019-11-18 18:00:00 4.1 6 Noroeste 13 Noroeste 0 -- -- 70
2019-11-18 17:00:00 6.6 5 Norte 19 Norte 0 -- -- 60
2019-11-18 16:00:00 7.9 11 Norte 19 Noroeste 0 -- -- 59
2019-11-18 15:00:00 7.8 7 Norte 21 Norte 0 -- -- 58
2019-11-18 14:00:00 7.6 6 Este 27 Nordeste 0 -- -- 63
2019-11-18 13:00:00 7 6 Nordeste 25 Norte 0.2 -- -- 72
2019-11-18 12:00:00 6.2 8 Norte 27 Norte 0 -- -- 63
2019-11-18 11:00:00 4.7 6 Norte 24 Norte 0 -- -- 70
2019-11-18 10:00:00 2.9 9 Norte 26 Norte 0 -- -- 76
2019-11-18 09:00:00 1.2 7 Norte 20 Nordeste 0 -- -- 84
2019-11-18 08:00:00 0.8 10 Norte 25 Norte 0 -- -- 88
2019-11-18 07:00:00 0.8 9 Norte 25 Norte 0 -- -- 89
2019-11-18 06:00:00 1.2 13 Norte 33 Norte 0 -- -- 91
2019-11-18 05:00:00 1.2 9 Norte 22 Norte 0 -- -- 89
2019-11-18 04:00:00 0.9 12 Norte 28 Noroeste 0 -- -- 96
2019-11-18 03:00:00 1.2 11 Norte 45 Norte 0 -- -- 96
2019-11-18 02:00:00 1 18 Noroeste 52 Noroeste 0 -- -- 96
2019-11-18 01:00:00 1.4 26 Noroeste 47 Noroeste 0 -- -- 90
2019-11-18 00:00:00 1.8 19 Noroeste 45 Norte 0 -- -- 86
2019-11-17 23:00:00 2.4 10 Nordeste 30 Norte 0 -- -- 88
2019-11-17 22:00:00 3.1 7 Noroeste 34 Noroeste 0 -- -- 100
2019-11-17 21:00:00 4 9 Noroeste 30 Noroeste 0.4 -- -- 100
2019-11-17 20:00:00 4.6 11 Oeste 28 Oeste 0.8 -- -- 100
2019-11-17 19:00:00 4.9 14 Sudoeste 33 Oeste 1 -- -- 100
2019-11-17 18:00:00 5 14 Sudoeste 34 Oeste 1.2 -- -- 100
2019-11-17 17:00:00 4.2 16 Sudoeste 34 Sudoeste 1.4 -- -- 100
2019-11-17 16:00:00 4.1 11 Sudoeste 23 Sudoeste 0.8 -- -- 100
2019-11-17 15:00:00 4.6 9 Sudoeste 26 Sudoeste 0 -- -- 100
2019-11-17 14:00:00 4.5 10 Sudoeste 26 Sudoeste 0 -- -- 100
2019-11-17 13:00:00 4.3 8 Sudoeste 20 Sudoeste 0.2 -- -- 100
2019-11-17 12:00:00 3.8 10 Sudoeste 22 Sudoeste 0 -- -- 100
2019-11-17 11:00:00 3.3 6 Sudoeste 18 Sudoeste 0.2 -- -- 100
2019-11-17 10:00:00 2.5 8 Sudoeste 20 Sudoeste 0.2 -- -- 100
2019-11-17 09:00:00 2.5 6 Sudoeste 16 Sudoeste 0.2 -- -- 100
2019-11-17 08:00:00 3 5 Sudoeste 14 Sudoeste 0 -- -- 100
2019-11-17 07:00:00 2.3 4 Oeste 15 Oeste 0.2 -- -- 99
2019-11-17 06:00:00 1.8 3 Noroeste 10 Noroeste 0 -- -- 95
2019-11-17 05:00:00 2.1 5 Oeste 14 Oeste 0 -- -- 94
2019-11-17 04:00:00 1.5 5 Oeste 12 Noroeste 0 -- -- 86
2019-11-17 03:00:00 0.2 4 Oeste 26 Noroeste 0 -- -- 87
2019-11-17 02:00:00 -0.2 10 Noroeste 20 Noroeste 0 -- -- 88
2019-11-17 01:00:00 -0.3 8 Oeste 20 Noroeste 0 -- -- 89
2019-11-17 00:00:00 -0.2 2 Oeste 21 Oeste 0 -- -- 84
2019-11-16 23:00:00 0.7 10 Oeste 27 Noroeste 0 -- -- 83
2019-11-16 22:00:00 1 13 Noroeste 30 Noroeste 0 -- -- 83
2019-11-16 21:00:00 1.1 12 Noroeste 33 Noroeste 0 -- -- 83
2019-11-16 20:00:00 1.5 16 Noroeste 34 Noroeste 0 -- -- 80
2019-11-16 19:00:00 1.4 16 Noroeste 28 Oeste 0 -- -- 83
2019-11-16 18:00:00 1.9 15 Oeste 31 Noroeste 0 -- -- 74
2019-11-16 17:00:00 4 15 Oeste 35 Oeste 0 -- -- 71
2019-11-16 16:00:00 5.8 8 Sudoeste 23 Oeste 0 -- -- 62
2019-11-16 15:00:00 6.6 6 Sudoeste 22 Oeste 0 -- -- 58
2019-11-16 14:00:00 7.1 10 Oeste 15 Oeste 0 -- -- 59
2019-11-16 13:00:00 7.1 6 Oeste 15 Oeste 0 -- -- 55
2019-11-16 12:00:00 5.9 8 Noroeste 17 Norte 0 -- -- 53
2019-11-16 11:00:00 3.1 8 Norte 19 Noroeste 0 -- -- 68
2019-11-16 10:00:00 1.2 13 Norte 23 Norte 0 -- -- 75
2019-11-16 09:00:00 -0.5 8 Norte 21 Norte 0 -- -- 81
2019-11-16 08:00:00 -0.8 9 Norte 26 Nordeste 0 -- -- 81
2019-11-16 07:00:00 -0.8 9 Norte 27 Norte 0 -- -- 81
2019-11-16 06:00:00 -0.7 10 Norte 30 Norte 0 -- -- 82
2019-11-16 05:00:00 -0.9 10 Norte 24 Nordeste 0 -- -- 84
2019-11-16 04:00:00 -1.3 9 Nordeste 22 Noroeste 0 -- -- 88
2019-11-16 03:00:00 -1.4 9 Norte 31 Noroeste 0 -- -- 94
2019-11-16 02:00:00 -1.3 12 Norte 26 Noroeste 0 -- -- 92
2019-11-16 01:00:00 -1.6 5 Nordeste 16 Norte 0 -- -- 93
2019-11-16 00:00:00 -0.5 3 Sudeste 11 Nordeste 0 -- -- 89
2019-11-15 23:00:00 -0.3 3 Noroeste 36 Oeste 0 -- -- 88
2019-11-15 22:00:00 -0.3 20 Noroeste 42 Noroeste 0 -- -- 87
2019-11-15 21:00:00 -0.2 17 Noroeste 33 Noroeste 0 -- -- 86
2019-11-15 20:00:00 0.1 9 Noroeste 17 Noroeste 0 -- -- 87
2019-11-15 19:00:00 0.5 6 Noroeste 15 Noroeste 0 -- -- 82
2019-11-15 18:00:00 1.2 6 Noroeste 21 Noroeste 0 -- -- 81
2019-11-15 17:00:00 1.8 6 Noroeste 26 Noroeste 0 -- -- 77
2019-11-15 16:00:00 2.1 15 Noroeste 37 Oeste 0 -- -- 75
2019-11-15 15:00:00 3.4 16 Noroeste 39 Norte 0 -- -- 75
2019-11-15 14:00:00 3.7 22 Noroeste 40 Noroeste 0 -- -- 77
2019-11-15 13:00:00 3.3 13 Noroeste 28 Noroeste 0.2 -- -- 80
2019-11-15 12:00:00 0.3 8 Noroeste 17 Noroeste 0 -- -- 89
2019-11-15 11:00:00 -0.1 5 Norte 33 Norte 0 -- -- 87
2019-11-15 10:00:00 -0.7 14 Norte 33 Noroeste 0 -- -- 90
2019-11-15 09:00:00 -1.3 8 Norte 35 Noroeste 0 -- -- 94
2019-11-15 08:00:00 -1.5 19 Noroeste 45 Noroeste 0 -- -- 96
2019-11-15 07:00:00 -1.5 24 Noroeste 49 Noroeste 0 -- -- 97
2019-11-15 06:00:00 -1.1 32 Noroeste 69 Noroeste 0 -- -- 92
2019-11-15 05:00:00 -0.9 34 Noroeste 69 Noroeste 0 -- -- 91
2019-11-15 04:00:00 -0.8 20 Noroeste 44 Noroeste 0 -- -- 91
2019-11-15 03:00:00 -0.5 23 Noroeste 47 Norte 0 -- -- 90
2019-11-15 02:00:00 -0.1 8 Norte 22 Norte 0 -- -- 87
2019-11-15 01:00:00 0 10 Sudoeste 31 Oeste 0 -- -- 95
2019-11-15 00:00:00 0.2 16 Noroeste 46 Noroeste 0.2 -- -- 91
2019-11-14 23:00:00 0.2 24 Noroeste 46 Noroeste 0 -- -- 97
2019-11-14 22:00:00 0.4 17 Noroeste 47 Noroeste 0.2 -- -- 98
2019-11-14 21:00:00 0.9 21 Noroeste 47 Oeste 0.4 -- -- 98
2019-11-14 20:00:00 1.3 19 Oeste 54 Oeste 0.4 -- -- 96
2019-11-14 19:00:00 1.2 18 Oeste 57 Oeste 1.4 -- -- 100
2019-11-14 18:00:00 1.2 22 Oeste 57 Sudoeste 1.6 -- -- 100
2019-11-14 17:00:00 1.3 22 Oeste 51 Sudoeste 1 -- -- 100
2019-11-14 16:00:00 0.9 22 Sudoeste 50 Sudoeste 0.4 -- -- 99
2019-11-14 15:00:00 1.7 25 Sudoeste 56 Sudoeste 0 -- -- 89
2019-11-14 14:00:00 2.3 23 Oeste 46 Oeste 0 -- -- 87
2019-11-14 13:00:00 2.9 21 Sudoeste 45 Sudoeste 0 -- -- 88
2019-11-14 12:00:00 1.8 14 Oeste 42 Oeste 0 -- -- 96
2019-11-14 11:00:00 1 14 Oeste 39 Oeste 0 -- -- 97
2019-11-14 10:00:00 0.5 15 Oeste 48 Noroeste 0 -- -- 99
2019-11-14 09:00:00 0.3 20 Noroeste 44 Noroeste 0.2 -- -- 100
2019-11-14 08:00:00 1.9 17 Oeste 54 Sudoeste 1 -- -- 100
2019-11-14 07:00:00 3.5 23 Oeste 51 Oeste 1.2 -- -- 100
2019-11-14 06:00:00 3.8 19 Sudoeste 39 Oeste 1.6 -- -- 100
2019-11-14 05:00:00 3.5 16 Sudoeste 37 Sudoeste 0.2 -- -- 100
2019-11-14 04:00:00 3.4 16 Sudoeste 36 Sudoeste 0 -- -- 100
2019-11-14 03:00:00 3.7 11 Sudoeste 27 Oeste 0 -- -- 92
2019-11-14 02:00:00 3.8 3 Oeste 18 Norte 0 -- -- 91
2019-11-14 01:00:00 3.8 6 Norte 20 Este 0 -- -- 87
2019-11-14 00:00:00 4.8 4 Oeste 22 Sudoeste 0 -- -- 93
2019-11-13 23:00:00 5.4 9 Sudoeste 20 Sudoeste 0 -- -- 94
2019-11-13 22:00:00 6.2 5 Sur 14 Sudoeste 0 -- -- 92
2019-11-13 21:00:00 7.4 4 Sudoeste 14 Oeste 0 -- -- 88
2019-11-13 20:00:00 8.2 5 Oeste 14 Oeste 0 -- -- 84
2019-11-13 19:00:00 8 0 Calma 18 Sudoeste 0 -- -- 88
2019-11-13 18:00:00 9.5 8 Oeste 17 Sudoeste 0 -- -- 85
2019-11-13 17:00:00 9.6 10 Oeste 22 Sudoeste 0.2 -- -- 81
2019-11-13 16:00:00 10.5 10 Sudoeste 25 Oeste 0 -- -- 80
2019-11-13 15:00:00 12.2 9 Oeste 24 Noroeste 0 -- -- 75
2019-11-13 14:00:00 11.5 13 Noroeste 32 Noroeste 0 -- -- 80
2019-11-13 13:00:00 10.9 11 Noroeste 23 Noroeste 0 -- -- 88
2019-11-13 12:00:00 7.9 3 Oeste 26 Sudoeste 0 -- -- 100
2019-11-13 11:00:00 7.8 6 Oeste 39 Noroeste 0 -- -- 100
2019-11-13 10:00:00 7.7 12 Noroeste 31 Oeste 0 -- -- 100
2019-11-13 09:00:00 7.3 10 Oeste 33 Noroeste 0 -- -- 100
2019-11-13 08:00:00 7.3 12 Oeste 40 Oeste 0 -- -- 100
2019-11-13 07:00:00 7.5 14 Oeste 39 Oeste 1.2 -- -- 100
2019-11-13 06:00:00 7.6 18 Sudoeste 41 Oeste 2.6 -- -- 100
2019-11-13 05:00:00 7.2 19 Sudoeste 45 Sudoeste 2.8 -- -- 100
2019-11-13 04:00:00 6.9 20 Sudoeste 46 Sudoeste 3.8 -- -- 100
2019-11-13 03:00:00 6.6 22 Sudoeste 46 Sudoeste 2.8 -- -- 100
2019-11-13 02:00:00 6.6 23 Sudoeste 46 Sudoeste 1 -- -- 100
2019-11-13 01:00:00 6.5 20 Sudoeste 39 Sudoeste 0.2 -- -- 100
2019-11-13 00:00:00 6.3 14 Sudoeste 35 Sudoeste 0.6 -- -- 100
2019-11-12 23:00:00 6.1 9 Sudoeste 32 Sudoeste 0.2 -- -- 100
2019-11-12 22:00:00 6.1 12 Sudoeste 33 Sudoeste 0.4 -- -- 100
2019-11-12 21:00:00 6.1 13 Sudoeste 27 Sudoeste 0 -- -- 99
2019-11-12 20:00:00 6 8 Sudoeste 22 Sudoeste 0 -- -- 93
2019-11-12 19:00:00 5.8 9 Sudoeste 25 Sudoeste 0 -- -- 94
2019-11-12 18:00:00 6.6 7 Sudoeste 15 Sudoeste 0 -- -- 83
2019-11-12 17:00:00 7.4 5 Sudoeste 15 Sudoeste 0 -- -- 76
2019-11-12 16:00:00 9.1 6 Oeste 15 Oeste 0 -- -- 66
2019-11-12 15:00:00 11.2 7 Noroeste 21 Noroeste 0 -- -- 55
2019-11-12 14:00:00 10.6 7 Noroeste 21 Noroeste 0 -- -- 56
2019-11-12 13:00:00 9.8 11 Noroeste 21 Noroeste 0 -- -- 61
2019-11-12 12:00:00 8 3 Norte 10 Oeste 0 -- -- 74
2019-11-12 11:00:00 6.1 4 Este 14 Este 0 -- -- 86
2019-11-12 10:00:00 4.5 0 Calma 16 Este 0.2 -- -- 89
2019-11-12 09:00:00 2.6 6 Norte 16 Norte 0 -- -- 83
2019-11-12 08:00:00 1.9 5 Norte 14 Noroeste 0 -- -- 81
2019-11-12 07:00:00 2.4 4 Sudoeste 15 Noroeste 0 -- -- 80
2019-11-12 06:00:00 2.9 9 Noroeste 18 Noroeste 0 -- -- 80
2019-11-12 05:00:00 2.5 6 Noroeste 15 Norte 0 -- -- 81
2019-11-12 04:00:00 2.8 3 Norte 10 Noroeste 0 -- -- 79
2019-11-12 03:00:00 3.7 2 Este 13 Norte 0 -- -- 75
2019-11-12 02:00:00 3.6 7 Norte 15 Noroeste 0 -- -- 73
2019-11-12 01:00:00 3.4 2 Norte 13 Norte 0 -- -- 80
2019-11-12 00:00:00 3.8 8 Norte 16 Norte 0 -- -- 81
2019-11-11 23:00:00 4.2 6 Norte 15 Noroeste 0 -- -- 82
2019-11-11 22:00:00 5.2 5 Norte 24 Noroeste 0 -- -- 88
2019-11-11 21:00:00 6.3 17 Noroeste 29 Noroeste 0 -- -- 92
2019-11-11 20:00:00 6 10 Norte 26 Noroeste 0 -- -- 87
2019-11-11 19:00:00 6.4 12 Norte 23 Noroeste 0 -- -- 89
2019-11-11 18:00:00 7.2 12 Noroeste 22 Noroeste 0 -- -- 91
2019-11-11 17:00:00 8 14 Noroeste 28 Noroeste 0 -- -- 90
2019-11-11 16:00:00 8 4 Norte 21 Noroeste 0 -- -- 94
2019-11-11 15:00:00 7.6 9 Noroeste 32 Noroeste 0 -- -- 100
2019-11-11 14:00:00 7.4 4 Noroeste 18 Noroeste 0 -- -- 100
2019-11-11 13:00:00 7.3 4 Noroeste 21 Noroeste 0 -- -- 100
2019-11-11 12:00:00 7 8 Noroeste 18 Noroeste 0 -- -- 100
2019-11-11 11:00:00 6.5 7 Oeste 19 Oeste 0 -- -- 100
2019-11-11 10:00:00 6.1 4 Oeste 14 Oeste 0 -- -- 100
2019-11-11 09:00:00 5.8 3 Nordeste 17 Oeste 0 -- -- 100
2019-11-11 08:00:00 5.5 7 Noroeste 22 Noroeste 0.2 -- -- 100
2019-11-11 07:00:00 5.1 6 Oeste 15 Noroeste 0.2 -- -- 100
2019-11-11 06:00:00 4.9 0 Calma 7 Norte 0 -- -- 98
2019-11-11 05:00:00 4.9 3 Norte 12 Norte 0 -- -- 94
2019-11-11 04:00:00 4.6 3 Nordeste 13 Norte 0 -- -- 92
2019-11-11 03:00:00 4.5 3 Norte 15 Norte 0 -- -- 90
2019-11-11 02:00:00 3.6 3 Nordeste 9 Nordeste 0 -- -- 93
2019-11-11 01:00:00 3.2 6 Norte 16 Nordeste 0 -- -- 91
2019-11-11 00:00:00 2.6 5 Norte 17 Noroeste 0 -- -- 94